This is the latest recevied weather packets stored in our database for station/object KG7MRB. If no packets are shown the sender has not sent any weather packets the latest 10 day(s).
| Time | Temp. | Humidity | Pressure | Rain* | Wind** | Luminosity | Snow |
|---|---|---|---|---|---|---|---|
| 1788142037 | 64° F | 73% | 777.9 mmHg | 0 in | - | 22 W/m² | - |
| 1788141736 | 64° F | 73% | 777.8 mmHg | 0 in | - | 22 W/m² | - |
| 1788141432 | 64° F | 74% | 777.9 mmHg | 0 in | - | 24 W/m² | - |
| 1788141127 | 64° F | 72% | 778 mmHg | 0 in | - | 32 W/m² | - |
| 1788140822 | 64° F | 72% | 778 mmHg | 0 in | - | 36 W/m² | - |
| 1788140517 | 64° F | 71% | 777.8 mmHg | 0 in | - | 38 W/m² | - |
| 1788140213 | 65° F | 71% | 777.9 mmHg | 0 in | - | 47 W/m² | - |
| 1788139912 | 64° F | 71% | 777.8 mmHg | 0 in | - | 59 W/m² | - |
| 1788139608 | 64° F | 71% | 778 mmHg | 0 in | - | 61 W/m² | - |
| 1788139303 | 65° F | 71% | 778.2 mmHg | 0 in | - | 59 W/m² | - |
| 1788139002 | 65° F | 71% | 778 mmHg | 0 in | - | 65 W/m² | - |
| 1788138697 | 65° F | 69% | 778.1 mmHg | 0 in | - | 71 W/m² | - |
| 1788138393 | 65° F | 70% | 778.1 mmHg | 0 in | - | 75 W/m² | - |
| 1788138083 | 65° F | 70% | 778.1 mmHg | 0 in | - | 91 W/m² | - |
| 1788137783 | 65° F | 70% | 778 mmHg | 0 in | - | 112 W/m² | - |
| 1788137478 | 65° F | 70% | 778 mmHg | 0 in | - | 119 W/m² | - |
| 1788137174 | 65° F | 70% | 778.3 mmHg | 0 in | - | 96 W/m² | - |
| 1788136869 | 65° F | 71% | 778 mmHg | 0 in | - | 115 W/m² | - |
| 1788136565 | 65° F | 70% | 778 mmHg | 0 in | - | 117 W/m² | - |
| 1788136261 | 65° F | 71% | 778.2 mmHg | 0 in | - | 140 W/m² | - |
| 1788135959 | 65° F | 70% | 778.2 mmHg | 0 in | - | 163 W/m² | - |
| 1788135655 | 65° F | 70% | 778.4 mmHg | 0 in | - | 147 W/m² | - |
| 1788135350 | 65° F | 71% | 778.3 mmHg | 0 in | - | 142 W/m² | - |
| 1788135047 | 65° F | 71% | 778.2 mmHg | 0 in | - | 127 W/m² | - |
| 1788134743 | 65° F | 71% | 778.3 mmHg | 0 in | - | 133 W/m² | - |
* Rain latest hour (hover to see other rain measurements)
** Current wind speed in m/s (hover to see current wind gust speed)